APSTAR-6E

Last updated on Tue Sep 22 2026 00:03:16 GMT+0000 (Coordinated Universal Time)

1 55239U 23005A 26264.16433817 -.00000322 00000+0 00000+0 0 9993 2 55239 0.0434 246.3757 0004200 321.2795 345.5832 1.00268802 19665
UTC large
Height (km)
Speed (km/s)
/
Latitude / Longitude
Inclination (degrees)
Orbital Period (minutes)
Azimuth
Elevation
Range (km)
Doppler Factor

Next 0 passes for location: London (51.5072 / 0.1276)

No passes found over London.
APSTAR-6E